Location: McFarlands Corners
(41.4117°N, 81.3382°W)
Time: 03:04:43
(UTC+00:00)

Tiros 1 - Pass Details

Date: 19 February 2026
Orbit: 618 x 649 km, 48.4° (Epoch: 13 March)

Event Time Altitude Azimuth Distance (km) Brightness Sun altitude
Rises 13:31:19 0° 237° (WSW) 2,913 10.2 12.6°
Reaches altitude 10° 13:33:38 10° 236° (SW) 2,002 9.4 13.0°
Maximum altitude 13:38:15 82° 149° (SSE) 636 7.5 13.7°
Drops below altitude 10° 13:42:50 10° 63° (ENE) 1,991 10.2 14.5°
Sets 13:45:08 0° 62° (ENE) 2,896 11.0 14.9°
